Location: Newark
(53.7833°N, 9.4833°E)
Time: 23:15:47
(UTC+00:00)

Envisat - Pass Details

Date: 11 December 2019
Orbit: 764 x 766 km, 98.1° (Epoch: 22 January)

Event Time Altitude Azimuth Distance (km) Brightness Sun altitude
Rises 18:41:31 0° 214° (SW) 3,226 6.6 -31.0°
Reaches altitude 10° 18:44:41 10° 235° (SW) 2,305 6.0 -31.5°
Maximum altitude 18:47:51 16° 274° (W) 1,902 5.8 -31.9°
Drops below altitude 10° 18:51:02 10° 313° (NW) 2,316 6.0 -32.4°
Sets 18:54:14 0° 334° (NNW) 3,248 6.6 -32.9°
